Location: Caltech
(34.1382°N, 118.1253°W)
Time: 07:52:54
(UTC-07:00)

Iridium 3 - Visible Passes

Search period start: 21 April 2014 00:00
Search period end: 01 May 2014 00:00
Orbit: 776 x 779 km, 86.4° (Epoch: 20 April)

Date Brightness Start Highest point End Pass type
(mag) Time Alt. Az. Time Alt. Az. Time Alt. Az.
21 Apr 8.0 23:17:23 10° NNE 23:18:13 15° NNE 23:18:13 15° NNE visible
22 Apr 8.1 22:44:32 10° NNE 22:44:55 12° NNE 22:44:55 12° NNE visible
23 Apr 8.3 00:24:50 10° NNW 00:25:24 13° NNW 00:25:24 13° NNW visible
23 Apr 8.0 23:50:51 10° N 23:52:06 18° NNW 23:52:06 18° NNW visible
24 Apr 7.7 23:17:17 10° N 23:18:49 20° N 23:18:49 20° N visible
25 Apr 7.7 22:44:07 10° NNE 22:45:32 18° NNE 22:45:32 18° NNE visible
26 Apr 8.3 00:25:28 10° NW 00:26:01 12° NW 00:26:01 12° NW visible
26 Apr 7.8 22:11:33 10° NE 22:12:15 12° NE 22:12:15 12° NE visible
26 Apr 7.9 23:51:07 10° NNW 23:52:44 19° NNW 23:52:44 19° NNW visible
27 Apr 7.4 23:17:19 10° N 23:19:28 25° N 23:19:28 25° N visible
28 Apr 7.2 22:43:53 10° N 22:46:12 26° NNE 22:46:12 26° NNE visible
29 Apr 8.4 00:26:32 10° NW 00:26:41 10° NW 00:26:41 10° NW visible
29 Apr 7.4 22:10:55 10° NNE 22:12:56 20° NE 22:12:56 20° NE visible
29 Apr 7.9 23:51:34 10° NNW 23:53:25 19° NW 23:53:25 19° NW visible
30 Apr 7.7 21:38:48 10° NE 21:39:41 12° NE 21:39:41 12° NE visible
30 Apr 7.2 23:17:28 10° NNW 23:20:10 30° NNW 23:20:10 30° NNW visible
